Time,TemperatureF,DewpointF,PressureIn,WindDirection,WindDirectionDegrees,WindSpeedMPH,WindSpeedGustMPH,Humidity,HourlyPrecipIn,Conditions,Clouds,dailyrainin,SoftwareType,DateUTC
2013-01-17 00:02:00,34.0,28.0,30.25,WSW,242,4.0,6.0,78,0.00,,,0.00,,2013-01-17 06:02:00,
2013-01-17 00:12:00,33.0,28.0,30.26,WSW,243,6.0,6.0,81,0.00,,,0.00,,2013-01-17 06:12:00,
2013-01-17 00:22:00,33.0,28.0,30.26,WSW,243,6.0,6.0,81,0.00,,,0.00,,2013-01-17 06:22:00,
2013-01-17 00:32:00,32.0,27.0,30.27,West,261,3.0,5.0,83,0.00,,,0.00,,2013-01-17 06:32:00,
2013-01-17 00:42:00,32.0,27.0,30.27,West,261,3.0,5.0,83,0.00,,,0.00,,2013-01-17 06:42:00,
2013-01-17 00:52:00,31.0,26.0,30.28,WSW,250,4.0,6.0,83,0.00,,,0.00,,2013-01-17 06:52:00,
2013-01-17 01:02:00,30.0,26.0,30.29,WSW,255,4.0,6.0,84,0.00,,,0.00,,2013-01-17 07:02:00,
2013-01-17 01:12:00,30.0,26.0,30.29,WSW,255,4.0,6.0,84,0.00,,,0.00,,2013-01-17 07:12:00,
2013-01-17 01:22:00,29.0,26.0,30.30,West,262,3.0,5.0,87,0.00,,,0.00,,2013-01-17 07:22:00,
2013-01-17 01:32:00,30.0,27.0,30.31,West,263,4.0,5.0,87,0.00,,,0.00,,2013-01-17 07:32:00,
2013-01-17 01:42:00,30.0,27.0,30.31,West,263,4.0,5.0,87,0.00,,,0.00,,2013-01-17 07:42:00,
2013-01-17 01:52:00,30.0,27.0,30.32,WNW,302,2.0,5.0,87,0.00,,,0.00,,2013-01-17 07:52:00,
2013-01-17 02:02:00,29.0,26.0,30.33,West,271,2.0,6.0,87,0.00,,,0.00,,2013-01-17 08:02:00,
2013-01-17 02:12:00,29.0,26.0,30.33,West,271,2.0,6.0,87,0.00,,,0.00,,2013-01-17 08:12:00,
2013-01-17 02:22:00,30.0,27.0,30.34,NW,326,4.0,6.0,88,0.00,,,0.00,,2013-01-17 08:22:00,
2013-01-17 02:32:00,30.0,27.0,30.34,NW,304,3.0,6.0,87,0.00,,,0.00,,2013-01-17 08:32:00,
2013-01-17 02:43:00,30.0,27.0,30.34,NW,304,3.0,6.0,87,0.00,,,0.00,,2013-01-17 08:43:00,
2013-01-17 02:53:00,29.0,26.0,30.35,NW,325,1.0,5.0,87,0.00,,,0.00,,2013-01-17 08:53:00,
2013-01-17 03:02:00,29.0,26.0,30.35,West,267,3.0,5.0,88,0.00,,,0.00,,2013-01-17 09:02:00,
2013-01-17 03:12:00,29.0,26.0,30.35,West,267,3.0,5.0,88,0.00,,,0.00,,2013-01-17 09:12:00,
2013-01-17 03:22:00,29.0,26.0,30.36,WNW,289,2.0,5.0,88,0.00,,,0.00,,2013-01-17 09:22:00,
2013-01-17 03:32:00,29.0,26.0,30.36,West,261,4.0,5.0,88,0.00,,,0.00,,2013-01-17 09:32:00,
2013-01-17 03:42:00,29.0,26.0,30.36,West,261,4.0,5.0,88,0.00,,,0.00,,2013-01-17 09:42:00,
2013-01-17 03:52:00,29.0,26.0,30.36,WSW,257,4.0,5.0,89,0.00,,,0.00,,2013-01-17 09:52:00,
2013-01-17 04:02:00,27.0,24.0,30.36,WSW,248,4.0,5.0,88,0.00,,,0.00,,2013-01-17 10:02:00,
2013-01-17 04:12:00,27.0,24.0,30.36,WSW,248,4.0,5.0,88,0.00,,,0.00,,2013-01-17 10:12:00,
2013-01-17 04:22:00,27.0,25.0,30.36,WSW,251,2.0,4.0,92,0.00,,,0.00,,2013-01-17 10:22:00,
2013-01-17 04:32:00,26.0,23.0,30.37,WSW,249,1.0,4.0,89,0.00,,,0.00,,2013-01-17 10:32:00,
2013-01-17 04:42:00,26.0,23.0,30.37,WSW,249,1.0,4.0,89,0.00,,,0.00,,2013-01-17 10:42:00,
2013-01-17 04:53:00,27.0,25.0,30.37,WSW,250,0.0,1.0,91,0.00,,,0.00,,2013-01-17 10:53:00,
2013-01-17 05:02:00,27.0,25.0,30.37,WSW,250,0.0,0.0,91,0.00,,,0.00,,2013-01-17 11:02:00,
2013-01-17 05:12:00,27.0,25.0,30.37,WSW,250,0.0,0.0,91,0.00,,,0.00,,2013-01-17 11:12:00,
2013-01-17 05:22:00,27.0,24.0,30.38,WSW,250,0.0,2.0,90,0.00,,,0.00,,2013-01-17 11:22:00,
2013-01-17 05:32:00,25.0,22.0,30.38,WSW,251,2.0,2.0,88,0.00,,,0.00,,2013-01-17 11:32:00,
2013-01-17 05:42:00,25.0,22.0,30.38,WSW,251,2.0,2.0,88,0.00,,,0.00,,2013-01-17 11:42:00,
2013-01-17 05:53:00,22.0,20.0,30.39,WSW,251,1.0,2.0,92,0.00,,,0.00,,2013-01-17 11:53:00,
2013-01-17 06:02:00,21.0,19.0,30.38,West,261,1.0,4.0,90,0.00,,,0.00,,2013-01-17 12:02:00,
2013-01-17 06:12:00,21.0,19.0,30.38,West,261,1.0,4.0,90,0.00,,,0.00,,2013-01-17 12:12:00,
2013-01-17 06:22:00,20.0,18.0,30.39,West,261,0.0,2.0,91,0.00,,,0.00,,2013-01-17 12:22:00,
2013-01-17 06:32:00,21.0,19.0,30.39,West,261,0.0,0.0,93,0.00,,,0.00,,2013-01-17 12:32:00,
2013-01-17 06:42:00,21.0,19.0,30.39,West,261,0.0,0.0,93,0.00,,,0.00,,2013-01-17 12:42:00,
2013-01-17 06:53:00,22.0,20.0,30.40,West,261,0.0,2.0,93,0.00,,,0.00,,2013-01-17 12:53:00,
2013-01-17 07:03:00,23.0,22.0,30.40,WSW,238,2.0,5.0,94,0.00,,,0.00,,2013-01-17 13:03:00,
2013-01-17 07:12:00,23.0,22.0,30.40,WSW,238,2.0,5.0,94,0.00,,,0.00,,2013-01-17 13:12:00,
2013-01-17 07:22:00,20.0,17.0,30.41,WSW,254,3.0,4.0,88,0.00,,,0.00,,2013-01-17 13:22:00,
2013-01-17 07:33:00,19.0,17.0,30.42,West,259,3.0,3.0,91,0.00,,,0.00,,2013-01-17 13:33:00,
2013-01-17 07:43:00,19.0,17.0,30.42,West,259,3.0,3.0,91,0.00,,,0.00,,2013-01-17 13:43:00,
2013-01-17 07:53:00,18.0,16.0,30.42,West,259,4.0,5.0,92,0.00,,,0.00,,2013-01-17 13:53:00,
2013-01-17 08:03:00,21.0,20.0,30.43,West,260,1.0,2.0,94,0.00,,,0.00,,2013-01-17 14:03:00,
2013-01-17 08:12:00,21.0,20.0,30.43,West,260,1.0,2.0,94,0.00,,,0.00,,2013-01-17 14:12:00,
2013-01-17 08:23:00,22.0,20.0,30.42,WSW,257,2.0,3.0,93,0.00,,,0.00,,2013-01-17 14:23:00,
2013-01-17 08:33:00,20.0,18.0,30.43,WSW,250,2.0,4.0,91,0.00,,,0.00,,2013-01-17 14:33:00,
2013-01-17 08:42:00,20.0,18.0,30.43,WSW,250,2.0,4.0,91,0.00,,,0.00,,2013-01-17 14:42:00,
2013-01-17 08:53:00,24.0,23.0,30.44,West,261,0.0,4.0,94,0.00,,,0.00,,2013-01-17 14:53:00,
2013-01-17 09:03:00,27.0,26.0,30.44,West,259,1.0,4.0,95,0.00,,,0.00,,2013-01-17 15:03:00,
2013-01-17 09:12:00,27.0,26.0,30.44,West,259,1.0,4.0,95,0.00,,,0.00,,2013-01-17 15:12:00,
2013-01-17 09:22:00,29.0,27.0,30.45,West,263,0.0,2.0,94,0.00,,,0.00,,2013-01-17 15:22:00,
2013-01-17 09:33:00,31.0,29.0,30.46,West,273,2.0,4.0,93,0.00,,,0.00,,2013-01-17 15:33:00,
2013-01-17 09:43:00,31.0,29.0,30.46,West,273,2.0,4.0,93,0.00,,,0.00,,2013-01-17 15:43:00,
2013-01-17 09:53:00,34.0,31.0,30.47,West,274,4.0,6.0,89,0.00,,,0.00,,2013-01-17 15:53:00,
2013-01-17 10:02:00,35.0,31.0,30.47,West,261,5.0,7.0,86,0.00,,,0.00,,2013-01-17 16:02:00,
2013-01-17 10:12:00,35.0,31.0,30.47,West,261,5.0,7.0,86,0.00,,,0.00,,2013-01-17 16:12:00,
2013-01-17 10:22:00,37.0,33.0,30.48,WNW,283,2.0,6.0,84,0.00,,,0.00,,2013-01-17 16:22:00,
2013-01-17 10:33:00,38.0,33.0,30.48,West,268,7.0,10.0,81,0.00,,,0.00,,2013-01-17 16:33:00,
2013-01-17 10:43:00,38.0,33.0,30.48,West,268,7.0,10.0,81,0.00,,,0.00,,2013-01-17 16:43:00,
2013-01-17 10:53:00,39.0,33.0,30.48,WSW,250,7.0,9.0,78,0.00,,,0.00,,2013-01-17 16:53:00,
2013-01-17 11:03:00,40.0,33.0,30.48,West,268,7.0,9.0,76,0.00,,,0.00,,2013-01-17 17:03:00,
2013-01-17 11:12:00,40.0,33.0,30.48,West,268,7.0,9.0,76,0.00,,,0.00,,2013-01-17 17:12:00,
2013-01-17 11:22:00,42.0,34.0,30.48,WSW,247,7.0,11.0,73,0.00,,,0.00,,2013-01-17 17:22:00,
2013-01-17 11:33:00,43.0,34.0,30.48,West,276,8.0,11.0,69,0.00,,,0.00,,2013-01-17 17:33:00,
2013-01-17 11:43:00,43.0,34.0,30.48,West,276,8.0,11.0,69,0.00,,,0.00,,2013-01-17 17:43:00,
2013-01-17 11:53:00,44.0,34.0,30.47,West,272,5.0,10.0,67,0.00,,,0.00,,2013-01-17 17:53:00,
2013-01-17 12:03:00,45.0,33.0,30.47,West,271,7.0,12.0,62,0.00,,,0.00,,2013-01-17 18:03:00,
2013-01-17 12:12:00,45.0,33.0,30.47,West,271,7.0,12.0,62,0.00,,,0.00,,2013-01-17 18:12:00,
2013-01-17 12:22:00,46.0,33.0,30.46,WNW,290,5.0,12.0,60,0.00,,,0.00,,2013-01-17 18:22:00,
2013-01-17 12:33:00,47.0,33.0,30.45,West,269,9.0,13.0,59,0.00,,,0.00,,2013-01-17 18:33:00,
2013-01-17 12:43:00,47.0,33.0,30.45,West,269,9.0,13.0,59,0.00,,,0.00,,2013-01-17 18:43:00,
2013-01-17 12:53:00,47.0,33.0,30.45,WSW,254,7.0,13.0,58,0.00,,,0.00,,2013-01-17 18:53:00,
2013-01-17 13:03:00,48.0,33.0,30.44,West,267,10.0,12.0,56,0.00,,,0.00,,2013-01-17 19:03:00,
2013-01-17 13:12:00,48.0,33.0,30.44,West,267,10.0,12.0,56,0.00,,,0.00,,2013-01-17 19:12:00,
2013-01-17 13:22:00,49.0,34.0,30.42,West,277,9.0,13.0,55,0.00,,,0.00,,2013-01-17 19:22:00,
2013-01-17 13:33:00,49.0,33.0,30.41,West,269,11.0,18.0,53,0.00,,,0.00,,2013-01-17 19:33:00,
2013-01-17 13:42:00,49.0,33.0,30.41,West,269,11.0,18.0,53,0.00,,,0.00,,2013-01-17 19:42:00,
2013-01-17 13:53:00,49.0,33.0,30.40,WSW,242,10.0,16.0,53,0.00,,,0.00,,2013-01-17 19:53:00,
2013-01-17 14:03:00,50.0,33.0,30.40,West,280,11.0,16.0,51,0.00,,,0.00,,2013-01-17 20:03:00,
2013-01-17 14:12:00,50.0,33.0,30.40,West,280,11.0,16.0,51,0.00,,,0.00,,2013-01-17 20:12:00,
2013-01-17 14:23:00,50.0,33.0,30.40,WSW,253,9.0,15.0,51,0.00,,,0.00,,2013-01-17 20:23:00,
2013-01-17 14:33:00,51.0,33.0,30.40,West,259,9.0,14.0,50,0.00,,,0.00,,2013-01-17 20:33:00,
2013-01-17 14:43:00,51.0,33.0,30.40,West,259,9.0,14.0,50,0.00,,,0.00,,2013-01-17 20:43:00,
2013-01-17 14:54:00,52.0,33.0,30.39,West,262,10.0,14.0,48,0.00,,,0.00,,2013-01-17 20:54:00,
2013-01-17 15:03:00,52.0,32.0,30.39,WNW,294,8.0,16.0,47,0.00,,,0.00,,2013-01-17 21:03:00,
2013-01-17 15:12:00,52.0,32.0,30.39,WNW,294,8.0,16.0,47,0.00,,,0.00,,2013-01-17 21:12:00,
2013-01-17 15:23:00,52.0,32.0,30.39,WSW,257,7.0,13.0,46,0.00,,,0.00,,2013-01-17 21:23:00,
2013-01-17 15:33:00,52.0,31.0,30.40,West,273,7.0,11.0,44,0.00,,,0.00,,2013-01-17 21:33:00,
2013-01-17 15:42:00,52.0,31.0,30.40,West,273,7.0,11.0,44,0.00,,,0.00,,2013-01-17 21:42:00,
2013-01-17 15:53:00,52.0,31.0,30.40,West,272,7.0,13.0,44,0.00,,,0.00,,2013-01-17 21:53:00,
2013-01-17 16:03:00,52.0,31.0,30.40,WNW,290,6.0,10.0,44,0.00,,,0.00,,2013-01-17 22:03:00,
2013-01-17 16:12:00,52.0,31.0,30.40,WNW,290,6.0,10.0,44,0.00,,,0.00,,2013-01-17 22:12:00,
2013-01-17 16:23:00,52.0,31.0,30.40,NW,309,6.0,9.0,44,0.00,,,0.00,,2013-01-17 22:23:00,
2013-01-17 16:33:00,52.0,31.0,30.40,West,265,6.0,9.0,44,0.00,,,0.00,,2013-01-17 22:33:00,
2013-01-17 16:42:00,52.0,31.0,30.40,West,265,6.0,9.0,44,0.00,,,0.00,,2013-01-17 22:42:00,
2013-01-17 16:53:00,51.0,30.0,30.40,West,270,5.0,8.0,45,0.00,,,0.00,,2013-01-17 22:53:00,
2013-01-17 17:03:00,51.0,31.0,30.39,WSW,248,4.0,6.0,46,0.00,,,0.00,,2013-01-17 23:03:00,
2013-01-17 17:12:00,51.0,31.0,30.39,WSW,248,4.0,6.0,46,0.00,,,0.00,,2013-01-17 23:12:00,
2013-01-17 17:22:00,49.0,30.0,30.39,WSW,250,5.0,6.0,48,0.00,,,0.00,,2013-01-17 23:22:00,
2013-01-17 17:32:00,47.0,29.0,30.39,WSW,245,3.0,5.0,50,0.00,,,0.00,,2013-01-17 23:32:00,
2013-01-17 17:42:00,47.0,29.0,30.39,WSW,245,3.0,5.0,50,0.00,,,0.00,,2013-01-17 23:42:00,
2013-01-17 17:53:00,45.0,29.0,30.39,WSW,246,2.0,5.0,53,0.00,,,0.00,,2013-01-17 23:53:00,
2013-01-17 18:02:00,44.0,28.0,30.39,WSW,246,2.0,3.0,54,0.00,,,0.00,,2013-01-18 00:02:00,
2013-01-17 18:12:00,44.0,28.0,30.39,WSW,246,2.0,3.0,54,0.00,,,0.00,,2013-01-18 00:12:00,
2013-01-17 18:23:00,40.0,28.0,30.39,SSW,208,5.0,6.0,61,0.00,,,0.00,,2013-01-18 00:23:00,
2013-01-17 18:32:00,40.0,28.0,30.39,SSW,208,5.0,6.0,61,0.00,,,0.00,,2013-01-18 00:32:00,
2013-01-17 18:42:00,39.0,27.0,30.39,WSW,243,1.0,4.0,62,0.00,,,0.00,,2013-01-18 00:42:00,
2013-01-17 18:53:00,35.0,25.0,30.39,WSW,250,3.0,4.0,67,0.00,,,0.00,,2013-01-18 00:53:00,
2013-01-17 19:02:00,33.0,25.0,30.39,WSW,254,2.0,4.0,73,0.00,,,0.00,,2013-01-18 01:02:00,
2013-01-17 19:12:00,33.0,25.0,30.39,WSW,254,2.0,4.0,73,0.00,,,0.00,,2013-01-18 01:12:00,
2013-01-17 19:22:00,32.0,25.0,30.40,WSW,254,2.0,3.0,74,0.00,,,0.00,,2013-01-18 01:22:00,
2013-01-17 19:33:00,31.0,24.0,30.39,WSW,255,0.0,2.0,76,0.00,,,0.00,,2013-01-18 01:33:00,
2013-01-17 19:42:00,31.0,24.0,30.39,WSW,255,0.0,2.0,76,0.00,,,0.00,,2013-01-18 01:42:00,
2013-01-17 19:53:00,32.0,26.0,30.39,WSW,255,0.0,0.0,78,0.00,,,0.00,,2013-01-18 01:53:00,
2013-01-17 20:02:00,31.0,25.0,30.39,WSW,254,1.0,2.0,78,0.00,,,0.00,,2013-01-18 02:02:00,
2013-01-17 20:12:00,31.0,25.0,30.39,WSW,254,1.0,2.0,78,0.00,,,0.00,,2013-01-18 02:12:00,
2013-01-17 20:22:00,30.0,24.0,30.39,WSW,254,0.0,0.0,78,0.00,,,0.00,,2013-01-18 02:22:00,
2013-01-17 20:32:00,30.0,25.0,30.38,WSW,254,0.0,0.0,80,0.00,,,0.00,,2013-01-18 02:32:00,
2013-01-17 20:42:00,30.0,25.0,30.38,WSW,254,0.0,0.0,80,0.00,,,0.00,,2013-01-18 02:42:00,
2013-01-17 20:53:00,30.0,25.0,30.38,WSW,254,0.0,0.0,81,0.00,,,0.00,,2013-01-18 02:53:00,
2013-01-17 21:02:00,29.0,24.0,30.37,WSW,254,0.0,0.0,80,0.00,,,0.00,,2013-01-18 03:02:00,
2013-01-17 21:12:00,29.0,24.0,30.37,WSW,254,0.0,0.0,80,0.00,,,0.00,,2013-01-18 03:12:00,
2013-01-17 21:23:00,28.0,24.0,30.37,WSW,254,0.0,0.0,83,0.00,,,0.00,,2013-01-18 03:23:00,
2013-01-17 21:33:00,28.0,24.0,30.37,WSW,254,0.0,2.0,84,0.00,,,0.00,,2013-01-18 03:33:00,
2013-01-17 21:42:00,28.0,24.0,30.37,WSW,254,0.0,2.0,84,0.00,,,0.00,,2013-01-18 03:42:00,
2013-01-17 21:53:00,32.0,29.0,30.37,SW,221,6.0,8.0,87,0.00,,,0.00,,2013-01-18 03:53:00,
2013-01-17 22:02:00,35.0,29.0,30.36,SW,219,8.0,10.0,78,0.00,,,0.00,,2013-01-18 04:02:00,
2013-01-17 22:12:00,35.0,29.0,30.36,SW,219,8.0,10.0,78,0.00,,,0.00,,2013-01-18 04:12:00,
2013-01-17 22:22:00,36.0,29.0,30.35,SW,228,7.0,10.0,76,0.00,,,0.00,,2013-01-18 04:22:00,
2013-01-17 22:32:00,35.0,29.0,30.35,SW,215,5.0,8.0,77,0.00,,,0.00,,2013-01-18 04:32:00,
2013-01-17 22:42:00,35.0,29.0,30.35,SW,215,5.0,8.0,77,0.00,,,0.00,,2013-01-18 04:42:00,
2013-01-17 22:53:00,36.0,30.0,30.34,SW,219,8.0,10.0,78,0.00,,,0.00,,2013-01-18 04:53:00,
2013-01-17 23:03:00,36.0,29.0,30.34,SW,224,8.0,12.0,76,0.00,,,0.00,,2013-01-18 05:03:00,
2013-01-17 23:12:00,36.0,29.0,30.34,SW,224,8.0,12.0,76,0.00,,,0.00,,2013-01-18 05:12:00,
2013-01-17 23:22:00,36.0,29.0,30.34,SW,215,8.0,11.0,76,0.00,,,0.00,,2013-01-18 05:22:00,
2013-01-17 23:33:00,35.0,29.0,30.34,SW,224,7.0,11.0,77,0.00,,,0.00,,2013-01-18 05:33:00,
2013-01-17 23:42:00,35.0,29.0,30.34,SW,224,7.0,11.0,77,0.00,,,0.00,,2013-01-18 05:42:00,
2013-01-17 23:53:00,35.0,28.0,30.33,SW,220,7.0,11.0,76,0.00,,,0.00,,2013-01-18 05:53:00,